STARLINK-4476 (53419 NORAD) Tracking and Keplerian Element Data

This shows tracking and keplerian element data for the satellite.

Feedback or suggestion? Click here.




ElementValue
Catalog53419
NameSTARLINK-4476
Epoch Orbit1671
Epoch Day324.71071068
Epoch Year2022
RAAN123.4713
Inclination53.2178
Eccentricity0.0001954
Argument of Perigee51.1993
Mean Anonmoly308.9174
Mean Motion15.08842958
Decay Rate1.65E-05
L11 53419U 22097AH 22324.71071068 .00001650 00000+0 12174-3 0 9994
L22 53419 53.2178 123.4713 0001954 51.1993 308.9174 15.08842958 16715



Live tracking and technical data element details for STARLINK-4476 (NORAD 53419). STARLINK-4476 can be tracked NOW for your location showing map with azimuth and elevation plus other details from your city location.







IsCatalogInMostPopularTable: catalog: 53419, numindb: 6
Update: records affected: 1



GetName: 53419 STARLINK-4476

Hit Count: updated at: Thu, 08 Dec 2022 09:48:53 GMT